This is the latest recevied weather packets stored in our database for station/object DO7ZT-10. If no packets are shown the sender has not sent any weather packets the latest 10 day(s).
| Time | Temp. | Humidity | Pressure | Rain* | Wind** | Luminosity | Snow |
|---|---|---|---|---|---|---|---|
| 1777572180 | 13.89° C | 50% | 1028.6 hPa | - | - | - | - |
| 1777571280 | 15° C | 40% | 1028.5 hPa | - | - | - | - |
| 1777570380 | 15° C | 37% | 1028.5 hPa | - | - | - | - |
| 1777569480 | 15° C | 36% | 1028.5 hPa | - | - | - | - |
| 1777568580 | 15.56° C | 35% | 1028.4 hPa | - | - | - | - |
| 1777567680 | 16.11° C | 33% | 1028.4 hPa | - | - | - | - |
| 1777566780 | 16.11° C | 34% | 1028.4 hPa | - | - | - | - |
| 1777565880 | 16.11° C | 34% | 1028.5 hPa | - | - | - | - |
| 1777564979 | 15.56° C | 34% | 1028.6 hPa | - | - | - | - |
| 1777564079 | 16.67° C | 32% | 1028.7 hPa | - | - | - | - |
| 1777563179 | 16.67° C | 32% | 1028.8 hPa | - | - | - | - |
| 1777562279 | 16.11° C | 34% | 1029 hPa | - | - | - | - |
| 1777561379 | 17.78° C | 31% | 1029 hPa | - | - | - | - |
| 1777560479 | 17.78° C | 30% | 1029 hPa | - | - | - | - |
| 1777559579 | 17.22° C | 29% | 1029.3 hPa | - | - | - | - |
| 1777558679 | 18.33° C | 28% | 1029.3 hPa | - | - | - | - |
| 1777557779 | 18.33° C | 29% | 1029.5 hPa | - | - | - | - |
| 1777556879 | 17.78° C | 29% | 1029.5 hPa | - | - | - | - |
| 1777555979 | 17.78° C | 28% | 1029.6 hPa | - | - | - | - |
| 1777555079 | 16.67° C | 29% | 1029.8 hPa | - | - | - | - |
| 1777554179 | 17.22° C | 28% | 1029.9 hPa | - | - | - | - |
| 1777553278 | 16.11° C | 30% | 1030 hPa | - | - | - | - |
| 1777552378 | 17.22° C | 28% | 1030.2 hPa | - | - | - | - |
| 1777551478 | 17.22° C | 27% | 1030.3 hPa | - | - | - | - |
| 1777550578 | 16.11° C | 28% | 1030.4 hPa | - | - | - | - |
* Rain since midnight (hover to see other rain measurements)
** Current wind speed in m/s (hover to see current wind gust speed)